SCP
0 0 0 0 0 0 0 0 0 0 0 0 0 0 0 0 0 0 1 1 1 1 1 1 1 1 1 1 1 1 1 1 1 1 1 1 0 0 0 0 1 1 1 1
0 0 0 0 0 0 0 0 0 0 0 0 0 0 0 0 0 0 0 1 1 1 1 1 1 1 1 1 1 1 1 1 1 1 1 1 0 0 0 0 1 1 1 1
0 0 0 0 0 0 0 0 0 0 0 0 0 0 0 0 0 0 0 0 1 1 1 1 1 1 1 1 1 1 1 1 1 1 1 1 0 0 0 0 0 0 1 1
0 0 0 0 0 0 0 0 0 0 0 0 0 0 0 0 0 0 0 0 0 1 1 1 1 1 1 1 1 1 1 1 1 1 1 1 0 0 0 0 0 1 0 0
0 0 0 0 0 0 0 0 0 0 0 0 0 0 0 0 0 0 0 0 0 0 1 1 1 1 1 1 1 1 1 1 1 1 1 1 0 0 0 0 0 0 0 0
0 0 0 0 0 0 0 0 0 0 0 0 0 0 0 0 0 0 0 0 0 0 0 1 1 1 1 1 1 1 1 1 1 1 1 1 0 0 0 0 0 0 0 0
0 0 0 0 0 0 0 0 0 0 0 0 0 0 0 0 0 0 0 0 0 0 0 0 1 1 1 1 1 1 1 1 1 1 1 0 0 0 0 0 0 0 1 1
0 0 0 0 0 0 0 0 0 0 0 0 0 0 0 0 0 0 0 0 0 0 0 0 1 1 1 1 1 1 1 1 1 0 0 0 0 0 0 0 1 1 1 1
0 0 0 0 0 0 0 0 0 0 0 0 0 0 0 0 0 0 0 0 0 0 0 0 1 1 1 1 1 1 1 0 0 0 0 0 0 0 0 1 1 1 1 1
0 0 0 0 0 0 0 0 0 0 0 0 0 0 0 0 0 0 1 1 1 1 0 1 1 1 1 1 1 1 0 0 0 0 0 0 0 0 0 0 1 1 1 1
0 0 0 0 0 0 0 0 0 0 0 0 0 0 0 0 0 1 1 1 1 1 1 1 1 1 1 1 1 1 0 0 0 1 1 1 0 0 0 0 0 0 0 0
0 0 0 0 0 0 0 0 0 0 0 0 0 0 0 0 0 1 1 1 1 1 1 1 1 1 1 1 1 1 0 0 0 0 1 1 1 1 0 0 0 0 0 0
0 0 0 0 0 0 0 0 0 0 0 0 0 0 0 0 1 1 1 1 1 1 1 1 1 1 1 1 1 0 0 0 0 0 0 1 1 1 0 0 0 0 0 0
0 0 0 0 0 0 0 0 0 0 0 0 0 0 0 0 0 1 1 1 1 0 1 1 1 1 1 1 0 0 0 0 0 0 0 0 0 0 0 0 0 0 0 0
0 0 0 0 0 0 0 0 0 0 0 0 0 0 0 0 1 1 1 1 0 0 0 0 1 1 1 0 0 0 0 0 0 0 0 0 0 0 0 0 0 0 0 0
0 0 0 0 0 0 0 0 0 0 0 0 0 0 0 0 1 1 1 0 0 0 0 0 0 0 0 0 0 0 0 0 0 0 0 0 0 0 0 0 0 0 0 0
0 0 0 0 0 0 0 0 0 0 0 0 0 0 0 1 1 1 1 0 0 0 0 0 0 0 0 0 0 0 0 0 0 0 0 0 0 0 0 0 0 0 0 0
0 0 0 0 0 0 0 0 0 0 0 0 0 0 0 0 1 1 1 0 0 0 0 0 0 0 0 0 0 0 0 1 0 0 0 0 0 0 0 0 0 0 0 0
0 0 0 0 0 0 0 0 0 0 0 0 0 0 0 0 1 0 0 0 0 0 0 0 0 0 0 0 0 0 0 0 0 0 0 0 0 0 0 0 0 0 0 0
0 0 0 0 0 0 0 0 0 0 0 0 0 0 0 0 0 0 0 0 0 0 0 0 0 0 0 0 0 0 0 0 0 0 0 0 0 0 0 0 0 0 0 1
0 0 0 0 0 0 0 0 0 0 0 0 0 0 0 0 0 0 0 0 0 0 0 0 0 0 0 0 0 0 0 0 0 0 0 0 0 0 0 0 0 0 0 0
0 0 0 0 0 0 0 0 0 0 0 0 0 0 0 0 0 0 0 0 0 0 0 0 0 0 0 0 0 0 0 0 0 0 1 1 0 0 1 1 1 0 0 0
0 0 0 0 0 0 0 0 0 0 0 0 0 0 0 0 0 0 0 0 0 0 0 0 0 0 0 0 0 0 0 0 0 1 1 1 1 1 1 1 1 0 0 0
0 0 0 0 0 0 0 0 0 0 0 0 0 0 0 0 0 0 0 0 0 0 0 0 0 0 0 0 0 0 0 0 0 1 1 1 1 1 1 1 1 0 0 0
0 0 0 0 0 0 0 0 0 0 0 0 0 0 0 0 0 0 0 0 0 0 0 0 0 0 0 0 0 0 0 0 0 0 1 1 1 0 0 1 1 0 0 0
0 0 0 0 0 0 0 0 0 0 0 0 0 0 0 0 0 0 0 0 0 0 0 0 0 1 1 1 1 0 0 0 0 0 1 1 1 0 0 0 1 0 0 0
Wind_Speed
3 5 4 2 2 3 2 3 2 1 0 3 3 2 2 3 4 4 4 3 3 3 4 4 3 3 3 3 2 3 3 3 2 2 1 1 1 1 1 1 1 1 1 1
6 4 2 1 3 4 4 4 2 1 1 3 2 2 2 2 3 2 2 3 3 3 4 4 3 3 2 3 3 3 2 2 2 2 1 1 1 1 1 1 0 0 1 1
4 1 2 4 4 5 4 4 3 1 1 4 4 4 4 4 3 3 2 2 2 3 3 4 3 3 3 2 3 2 2 2 2 3 2 2 2 1 1 2 1 0 0 1
3 2 4 5 4 5 3 2 3 4 5 2 4 3 4 4 4 3 3 3 3 3 3 3 3 3 3 2 2 3 3 2 2 3 3 3 2 1 1 1 1 1 1 1
3 3 4 4 3 4 1 1 3 5 5 5 4 5 3 4 4 3 3 3 3 3 3 3 3 3 2 2 2 2 2 2 2 2 3 3 2 1 1 1 2 1 1 1
3 2 3 3 2 2 2 4 4 5 6 6 3 5 2 2 2 2 3 3 3 3 3 3 3 3 3 2 2 2 2 2 2 3 3 3 3 3 3 2 2 2 1 1
6 5 3 3 4 5 5 5 4 5 5 2 1 5 1 2 2 2 2 3 3 3 3 3 3 3 2 2 2 2 2 3 3 3 4 4 4 4 4 3 2 2 1 1
5 5 4 3 5 5 5 6 4 3 3 1 3 4 2 2 1 0 1 2 3 3 3 3 3 2 2 2 1 1 2 2 2 3 3 3 3 2 2 3 2 2 1 1
4 3 3 1 2 4 5 4 4 5 4 5 3 2 2 1 1 1 2 2 3 3 3 3 3 2 2 1 1 1 1 1 1 2 2 2 3 3 3 3 2 1 1 1
4 4 3 2 5 2 3 2 4 5 4 5 3 4 1 2 1 2 2 2 3 3 3 3 3 2 1 1 1 1 1 1 1 2 2 2 2 2 2 2 2 2 2 1
5 6 4 5 5 4 5 5 5 5 5 5 4 0 2 1 1 2 2 2 2 3 3 3 2 2 2 2 1 1 1 1 1 1 1 2 2 2 2 2 2 2 2 2
3 5 5 4 1 2 5 5 6 6 5 6 6 1 3 1 1 2 2 1 2 2 3 2 2 2 2 2 1 1 1 1 1 1 1 1 1 1 2 2 2 2 2 2
2 6 5 6 7 6 5 5 6 6 6 7 8 3 4 1 1 2 2 2 0 1 2 2 2 2 2 1 1 1 1 1 1 1 1 1 1 1 1 1 1 2 2 3
5 7 8 7 3 3 5 6 7 8 8 8 9 8 4 4 3 3 2 2 1 1 2 2 2 2 2 2 1 1 1 1 1 2 2 1 1 1 1 1 1 2 2 3
5 6 7 8 6 6 7 8 9 11 11 11 9 9 7 5 4 3 2 1 1 1 1 1 2 1 2 2 2 1 1 1 2 2 1 1 1 1 1 1 1 1 2 2
4 5 6 7 6 6 9 10 10 11 11 12 11 10 6 4 3 3 2 1 2 2 1 1 1 1 2 2 2 1 1 1 1 1 1 1 1 2 2 1 1 1 1 2
4 6 6 7 5 7 10 9 10 9 9 10 10 7 4 4 3 3 2 2 2 2 2 2 2 2 2 2 2 2 1 1 1 1 1 2 2 2 2 2 2 2 2 1
7 7 5 6 6 10 2 1 5 7 7 7 7 5 5 4 3 3 2 2 2 2 2 2 2 2 2 2 2 2 1 1 2 2 2 2 2 2 2 2 2 2 2 2
7 7 6 6 8 8 5 4 5 6 6 5 5 4 3 2 3 2 0 1 2 2 2 2 2 2 2 2 2 2 2 2 2 2 2 2 2 2 2 2 2 2 2 2
5 7 7 7 8 8 2 2 2 6 6 2 3 3 2 3 4 1 1 1 2 2 2 1 1 2 1 2 2 3 3 3 3 3 3 2 2 2 2 2 2 2 2 3
6 7 9 10 9 7 0 2 4 6 1 2 2 3 4 4 4 2 2 1 2 2 2 1 2 2 2 2 3 4 4 3 3 3 2 2 2 2 2 2 2 2 2 2
7 7 8 8 10 7 3 5 5 2 2 0 2 3 3 3 2 2 2 2 2 2 2 2 2 2 2 2 3 4 3 2 2 2 3 2 3 2 2 2 2 2 2 3
7 6 4 6 5 2 3 3 2 2 2 2 3 3 3 3 3 2 2 2 2 2 2 2 2 2 2 2 3 4 3 2 2 3 3 2 2 3 3 3 3 3 3 3
6 5 7 8 8 6 6 6 5 4 4 4 3 3 3 4 3 3 3 3 3 3 2 2 2 2 2 2 3 3 3 3 3 3 3 3 3 3 3 3 3 3 3 3
6 6 8 10 8 7 7 7 6 5 4 4 3 4 4 4 4 4 3 3 3 3 2 2 2 3 3 2 3 3 3 3 4 4 3 3 3 3 3 2 2 3 3 3
8 9 9 9 7 7 7 6 5 5 5 4 3 3 3 3 4 4 4 3 3 3 3 2 2 3 3 2 3 3 3 4 4 4 3 3 3 3 3 3 2 1 3 2
Wind_Direction
190 204 206 205 233 268 242 243 252 319 186 239 231 223 195 159 178 189 182 173 167 160 147 142 143 151 164 160 170 151 159 155 148 152 165 146 138 129 104 76 79 112 129 127
194 205 208 195 199 222 230 237 240 167 135 251 239 232 196 176 187 202 201 187 177 162 150 144 154 158 171 164 172 164 157 154 159 160 171 154 135 136 94 88 68 84 141 133
215 144 170 198 201 224 231 250 258 276 241 214 244 207 180 163 170 175 194 202 181 169 163 158 166 165 169 168 175 169 163 163 173 164 159 137 134 166 166 165 148 50 183 162
218 201 202 211 219 247 237 260 259 243 242 216 257 250 175 182 184 184 187 185 181 171 180 169 168 165 164 163 179 179 171 175 171 178 187 184 197 205 194 190 161 173 205 201
190 194 214 226 234 248 290 258 240 244 253 245 222 258 160 175 201 195 187 182 180 179 182 176 168 163 155 149 169 191 186 186 181 199 197 213 212 206 180 183 177 193 185 206
216 204 250 258 227 216 179 195 195 222 241 240 223 258 210 160 251 237 198 190 186 177 172 163 151 152 143 140 155 180 199 199 206 211 207 207 204 202 193 189 192 197 183 199
202 192 197 225 208 182 218 240 227 218 220 227 165 252 285 48 343 280 237 202 182 175 166 158 153 153 147 151 164 189 204 206 211 215 214 211 206 211 213 210 202 207 200 204
217 195 184 216 240 235 227 251 267 273 273 242 205 244 88 56 21 358 207 189 178 168 163 161 157 152 156 165 181 193 204 209 214 220 216 211 204 215 228 230 223 209 218 229
237 195 139 178 248 249 220 226 279 278 275 266 223 206 176 136 149 145 163 177 184 177 173 167 161 156 157 161 172 177 188 189 204 220 216 212 210 208 218 228 221 214 221 238
263 239 180 170 187 157 279 206 224 251 271 264 245 243 240 184 195 187 205 207 196 188 183 174 168 163 152 138 137 133 177 183 183 211 209 200 216 218 220 218 210 218 220 209
252 242 198 191 215 213 188 198 230 245 265 277 275 212 47 323 275 247 239 221 202 191 186 179 173 164 146 135 141 141 158 158 165 192 195 193 199 216 218 220 226 237 239 225
247 261 237 213 181 271 242 237 237 249 243 254 275 295 90 342 310 300 290 251 212 194 182 177 168 159 158 151 151 138 138 131 123 151 160 169 184 200 218 226 229 237 242 236
224 245 239 197 184 187 209 216 236 254 257 247 253 246 108 43 339 345 318 301 261 169 167 164 169 173 172 169 171 140 130 123 120 154 162 167 178 189 223 238 230 238 240 228
253 248 253 262 281 220 222 215 219 233 247 252 251 267 265 285 302 315 307 294 271 184 172 173 189 185 181 186 198 193 164 154 163 175 184 188 188 200 213 228 233 228 242 242
246 256 255 266 268 251 252 246 234 239 253 261 268 270 278 285 297 307 303 289 240 207 200 195 207 192 188 194 205 200 189 182 187 186 201 208 202 196 219 215 234 242 242 251
243 251 254 250 238 243 252 250 244 245 251 255 262 266 279 287 289 287 280 246 232 228 224 208 216 206 205 202 205 194 192 192 194 197 204 205 216 199 208 215 214 223 238 247
223 234 249 252 240 250 247 237 233 236 240 249 258 269 268 261 271 284 282 245 243 242 236 234 229 226 222 208 197 200 194 187 192 215 238 232 215 198 198 204 203 214 220 225
234 234 242 258 250 244 241 182 232 240 247 253 260 266 260 267 277 282 275 266 260 259 244 240 238 229 227 208 200 201 188 186 197 211 246 233 213 202 197 200 211 228 235 227
234 230 232 240 253 261 243 216 217 234 247 247 252 252 266 286 246 223 88 303 284 275 254 244 240 227 220 209 207 203 198 201 207 222 245 230 213 208 210 213 223 230 237 243
200 221 233 231 247 252 227 150 212 244 242 203 231 228 230 222 248 238 10 312 291 287 271 257 234 226 218 220 213 216 216 218 219 225 232 232 221 217 217 226 231 229 232 245
186 202 223 234 244 256 266 147 197 230 297 122 221 228 224 239 292 338 327 319 314 303 295 269 230 224 219 227 227 230 230 230 225 228 226 221 215 216 218 231 235 241 244 250
219 212 218 225 235 241 139 169 217 298 22 192 244 250 251 268 306 310 298 303 317 319 303 274 252 242 215 220 233 241 245 244 230 219 215 218 212 208 214 225 241 252 257 257
231 238 241 234 250 338 180 219 272 306 277 283 273 266 258 262 269 279 283 285 295 307 298 273 262 252 229 222 235 250 253 242 228 222 223 223 225 216 218 228 238 247 251 257
228 238 243 248 250 256 251 257 260 256 269 281 278 266 252 253 257 267 275 279 282 291 292 276 261 257 250 238 240 253 252 234 221 221 227 229 230 236 230 228 238 249 255 256
247 226 241 252 256 261 254 252 256 259 258 260 265 265 260 254 254 260 267 274 282 284 280 268 260 258 256 249 241 241 244 234 229 226 226 230 232 237 246 239 253 260 266 278
231 233 241 253 254 259 262 253 255 254 250 245 245 258 261 254 255 265 271 278 282 283 284 276 270 266 261 254 251 240 236 239 238 235 238 239 237 237 243 249 245 248 251 255